Hourly Data Report for May 19, 2012

All times are specified in Local Standard Time (LST). Add 1 hour to adjust for Daylight Saving Time where and when it is observed.

GANDER INTL A
NEWFOUNDLAND

48°56'13.000" N
54°34'05.000" W
151.20 m
8401703
71803
YQX

Download Data

Hourly Data (May 2012)
Hourly Data Report for May 19, 2012
Temp Definition
°C
Dew Point Temp Definition
°C
Rel Hum Definition
%
Wind Dir Definition
10's deg

Wind Spd Definition
km/h
Visibility Definition
km
Stn Press Definition
kPa
Hmdx Definition


Wind Chill Definition


Weather Definition


TIME
00:30 Legend Double Dagger 5.7 -0.4 65 26 18 10.0 99.47     LegendNANA
01:30 Legend Double Dagger 5.1 -0.5 67 24 18 10.0 99.49     LegendNANA
02:30 Legend Double Dagger 4.8 -0.6 68 23 19 10.0 99.44     Clear
03:30 Legend Double Dagger 4.8 -0.6 68 21 18 10.0 99.38     LegendNANA
04:30 Legend Double Dagger 5.4 0.4 70 22 28 10.0 99.37     LegendNANA
05:30 Legend Double Dagger 6.9 0.1 62 23 24 10.0 99.37     Mainly Clear
06:30 Legend Double Dagger 9.4 0.9 55 24 28 10.0 99.31     LegendNANA
07:30 Legend Double Dagger 11.7 0.2 45 24 41 10.0 99.21     LegendNANA
08:30 Legend Double Dagger 13.3 0.1 40 25 32 10.0 99.15     Mainly Clear
09:30 Legend Double Dagger 13.6 -0.4 38 26 39 10.0 99.12     LegendNANA
10:30 Legend Double Dagger 14.7 -1.8 32 26 39 10.0 99.10     LegendNANA
11:30 Legend Double Dagger 15.8 -1.2 31 26 34 10.0 99.07     Mainly Clear
12:30 Legend Double Dagger 16.3 -2.7 27 27 39 10.0 99.02     LegendNANA
13:30 Legend Double Dagger 17.0 -4.8 22 27 37 10.0 99.00     LegendNANA
14:30 Legend Double Dagger 16.6 -4.0 24 26 32 10.0 99.03     Mainly Clear
15:30 Legend Double Dagger 15.9 -3.0 27 27 37 10.0 99.07     LegendNANA
16:30 Legend Double Dagger 16.3 -3.2 26 29 33 10.0 99.11     LegendNANA
17:30 Legend Double Dagger 14.3 -3.9 28 30 45 10.0 99.20     Mainly Clear
18:30 Legend Double Dagger 12.0 -2.2 37 30 42 10.0 99.29     LegendNANA
19:30 Legend Double Dagger 10.9 -2.1 40 28 31 10.0 99.36     LegendNANA
20:30 Legend Double Dagger 9.4 -1.3 47 28 24 10.0 99.41     Mainly Clear
21:30 Legend Double Dagger 8.6 -0.9 51 27 22 10.0 99.49     LegendNANA
22:30 Legend Double Dagger 6.8 -0.4 60 32 21 10.0 99.54     LegendNANA
23:30 Legend Double Dagger 7.2 -0.3 59 28 17 10.0 99.56     Mostly Cloudy

Notes on Data Quality.

Legend

  • E = Estimated
  • M = Missing
  • NA = Not Available
  • ‡ = Partner data that is not subject to review by the National Climate Archives
Date modified: